Weather History for Morrisville, VT

Change the Weather History Date:

Wednesday, March 20, 2013

  Actual Average Record
Temperature  
Mean Temperature 28 °F 30 °F  
Max Temperature 34 °F 41 °F 79 °F (2012)
Min Temperature 21 °F 20 °F 0 °F (2007)
Degree Days  
Heating Degree Days 37 35  
Month to date heating degree days 677 770  
Since 1 July heating degree days 6209 6730  
Cooling Degree Days 0 0  
Month to date cooling degree days 0 0  
Year to date cooling degree days 0 0  
Moisture  
Dew Point 22 °F    
Average Humidity 75    
Maximum Humidity 96    
Minimum Humidity 53    
Precipitation  
Precipitation 0.05 in 0.07 in 0.70 in (1951)
Month to date precipitation 1.67 0.97  
Year to date precipitation 4.38 5.25  
Sea Level Pressure  
Sea Level Pressure 29.68 in    
Wind  
Wind Speed 4 mph (SSW)    
Max Wind Speed 12 mph    
Max Gust Speed 18 mph    
Visibility 5 miles    
Events Fog , Snow    
T = Trace of Precipitation, MM = Missing Value Source: NWS Daily Summary

Daily Weather History Graph

Daily Weather History Graph

Search for Another Location

Airport:

Trip Planner

Search our weather history database for the weather conditions in past years. The results will help you decide how hot, cold, wet, or windy it might be!

Date:

Astronomy

Mar. 20, 2013 Rise Set
Actual Time 6:53 AM EDT 7:03 PM EDT
Civil Twilight 6:24 AM EDT 7:32 PM EDT
Nautical Twilight 5:50 AM EDT 8:06 PM EDT
Astronomical Twilight 5:15 AM EDT 8:41 PM EDT
Moon 12:23 PM EDT 2:43 AM EDT
Length of Visible Light 13h 08m
Length of Day
12h 09m
First Quarter, 59% of the Moon is Illuminated
Mar 20
First Quarter
Mar 27
Full
Apr 3
Last Quarter
Apr 10
New
Apr 18
First Quarter

Hourly Weather History & Observations

Time (EDT) Temp. Windchill Dew Point Humidity Pressure Visibility Wind Dir Wind Speed Gust Speed Precip Events Conditions
12:21 AM 24.8 °F 19.1 °F 21.2 °F 86% 29.71 in 1.2 mi North 4.6 mph - 0.02 in Snow Light Snow
12:27 AM 24.8 °F 16.9 °F 21.2 °F 86% 29.71 in 0.8 mi NNW 6.9 mph - 0.02 in Snow Light Snow
12:34 AM 24.8 °F - 21.2 °F 86% 29.70 in 0.5 mi Calm Calm - 0.03 in Fog , Snow Snow
12:43 AM 24.8 °F - 21.2 °F 86% 29.69 in 1.0 mi Calm Calm - 0.04 in Snow Light Snow
12:45 AM 24.8 °F - 21.2 °F 86% 29.69 in 1.2 mi Calm Calm - 0.04 in Snow Light Snow
12:50 AM 24.8 °F - 23.0 °F 93% 29.69 in 3.0 mi Calm Calm - 0.04 in Snow Light Snow
12:54 AM 25.0 °F - 23.0 °F 92% 29.72 in 4.0 mi Calm Calm - 0.04 in Snow Light Snow
1:03 AM 24.8 °F - 23.0 °F 93% 29.69 in 6.0 mi Calm Calm - 0.00 in Snow Light Snow
1:54 AM 24.1 °F - 21.0 °F 88% 29.71 in 9.0 mi Calm Calm - 0.00 in   Overcast
2:54 AM 23.0 °F - 21.0 °F 92% 29.70 in 7.0 mi Calm Calm - N/A   Overcast
3:54 AM 24.1 °F - 21.0 °F 88% 29.69 in 8.0 mi Calm Calm - N/A   Overcast
4:54 AM 24.1 °F 18.2 °F 21.0 °F 88% 29.69 in 6.0 mi South 4.6 mph - 0.00 in Snow Light Snow
5:54 AM 23.0 °F - 19.9 °F 88% 29.69 in 7.0 mi Calm Calm - 0.00 in   Overcast
6:54 AM 21.0 °F 14.6 °F 18.0 °F 88% 29.70 in 8.0 mi South 4.6 mph - N/A   Overcast
7:54 AM 24.1 °F - 19.0 °F 81% 29.70 in 5.0 mi Calm Calm - N/A   Haze
8:54 AM 26.1 °F - 21.0 °F 81% 29.70 in 9.0 mi Calm Calm - N/A   Overcast
9:54 AM 26.1 °F - 17.1 °F 69% 29.70 in 10.0 mi Calm Calm - N/A   Mostly Cloudy
10:54 AM 28.0 °F 21.7 °F 16.0 °F 61% 29.70 in 10.0 mi NW 5.8 mph - N/A   Overcast
11:54 AM 30.9 °F 24.3 °F 16.0 °F 54% 29.69 in 10.0 mi WNW 6.9 mph - N/A   Overcast
12:54 PM 30.0 °F 23.2 °F 19.0 °F 64% 29.68 in 10.0 mi Variable 6.9 mph - N/A   Overcast
1:54 PM 32.0 °F 26.4 °F 18.0 °F 56% 29.67 in 10.0 mi SSW 5.8 mph - N/A   Overcast
2:54 PM 30.0 °F 23.2 °F 21.9 °F 72% 29.67 in 4.0 mi Variable 6.9 mph - 0.00 in Snow Light Snow
3:02 PM 30.2 °F 22.6 °F 23.0 °F 75% 29.63 in 2.5 mi SW 8.1 mph - 0.00 in Snow Light Snow
3:32 PM 28.4 °F 21.2 °F 23.0 °F 80% 29.63 in 1.5 mi SSW 6.9 mph - 0.00 in Snow Light Snow
3:54 PM 30.0 °F 23.2 °F 25.0 °F 82% 29.66 in 1.2 mi SSW 6.9 mph - 0.00 in Snow Light Snow
4:19 PM 28.4 °F 22.2 °F 24.8 °F 86% 29.63 in 0.8 mi South 5.8 mph - 0.00 in Snow Light Snow
4:26 PM 28.4 °F 21.2 °F 24.8 °F 86% 29.63 in 0.8 mi South 6.9 mph - 0.01 in Snow Light Snow
4:47 PM 28.4 °F 23.3 °F 26.6 °F 93% 29.64 in 0.5 mi SSW 4.6 mph - 0.02 in Fog , Snow Snow
4:54 PM 28.9 °F 22.8 °F 26.1 °F 89% 29.67 in 0.5 mi SSW 5.8 mph - 0.02 in Fog , Snow Snow
5:05 PM 28.4 °F 24.6 °F 26.6 °F 93% 29.64 in 1.2 mi SSW 3.5 mph - 0.01 in Snow Light Snow
5:10 PM 28.4 °F 23.3 °F 26.6 °F 93% 29.64 in 3.0 mi SSW 4.6 mph - 0.01 in Snow Light Snow
5:23 PM 30.2 °F - 26.6 °F 86% 29.64 in 9.0 mi Calm Calm - 0.01 in   Overcast
5:36 PM 30.2 °F 24.3 °F 24.8 °F 80% 29.65 in 1.5 mi Variable 5.8 mph - 0.01 in Snow Light Snow
5:54 PM 28.9 °F - 24.1 °F 82% 29.68 in 3.0 mi Calm Calm - 0.01 in Snow Light Snow
6:10 PM 28.4 °F - 24.8 °F 86% 29.65 in 1.8 mi Calm Calm - 0.00 in Snow Light Snow
6:21 PM 28.4 °F - 24.8 °F 86% 29.65 in 1.0 mi Calm Calm - 0.00 in Snow Light Snow
6:29 PM 28.4 °F - 24.8 °F 86% 29.65 in 2.0 mi Calm Calm - 0.00 in Snow Light Snow
6:39 PM 28.4 °F 24.6 °F 24.8 °F 86% 29.66 in 6.0 mi Variable 3.5 mph - 0.00 in Snow Light Snow
6:54 PM 28.9 °F 23.9 °F 24.1 °F 82% 29.70 in 10.0 mi South 4.6 mph - 0.00 in   Overcast
7:17 PM 28.4 °F 23.3 °F 21.2 °F 74% 29.67 in 2.5 mi Variable 4.6 mph - 0.00 in Snow Light Snow
7:25 PM 28.4 °F 24.6 °F 23.0 °F 80% 29.67 in 1.2 mi SSW 3.5 mph - 0.00 in Snow Light Snow
7:34 PM 28.4 °F 24.6 °F 24.8 °F 86% 29.67 in 0.8 mi Variable 3.5 mph - 0.01 in Snow Light Snow
7:47 PM 28.4 °F 24.6 °F 24.8 °F 86% 29.67 in 1.2 mi South 3.5 mph - 0.02 in Snow Light Snow
7:54 PM 28.0 °F 24.2 °F 25.0 °F 88% 29.71 in 3.0 mi South 3.5 mph - 0.02 in Snow Light Snow
8:12 PM 28.4 °F 21.2 °F 24.8 °F 86% 29.67 in 9.0 mi SW 6.9 mph - 0.00 in   Overcast
8:54 PM 28.9 °F 21.9 °F 18.0 °F 64% 29.71 in 10.0 mi Variable 6.9 mph - 0.00 in   Overcast
9:54 PM 27.0 °F 18.7 °F 18.0 °F 69% 29.73 in 10.0 mi SSW 8.1 mph - 0.00 in   Overcast
10:54 PM 27.0 °F 23.0 °F 18.0 °F 69% 29.72 in 10.0 mi SSW 3.5 mph - N/A   Overcast
11:54 PM 24.1 °F 19.7 °F 16.0 °F 71% 29.72 in 10.0 mi South 3.5 mph - N/A   Overcast